Location: Newark
(54.8972°N, 99.8189°W)
Time: 03:06:12
(UTC+00:00)

Altair - Visible Passes

Search period start: 14 November 2019 00:00
Search period end: 24 November 2019 00:00
Orbit: 1502 x 1682 km, 47.2° (Epoch: 12 November)

Date Brightness Start Highest point End Pass type
(mag) Time Alt. Az. Time Alt. Az. Time Alt. Az.
14 Nov 9.0 10:01:49 17° S 10:05:59 23° SE 10:12:42 10° E visible
14 Nov 8.2 12:00:20 10° SW 12:08:53 46° SSE 12:17:37 10° E visible
15 Nov 8.9 09:38:30 19° SSE 09:41:00 22° SE 09:47:25 10° E visible
15 Nov 8.2 11:36:33 15° SW 11:43:49 44° SSE 11:52:27 10° E visible
16 Nov 9.0 09:15:06 20° SE 09:16:01 20° SE 09:22:06 10° E visible
16 Nov 8.2 11:13:09 21° SSW 11:18:45 43° SSE 11:27:18 10° E visible
16 Nov 8.0 13:13:29 10° WSW 13:22:21 55° S 13:31:26 10° ESE visible
17 Nov 9.1 08:51:37 18° SE 08:51:37 18° SE 08:56:45 10° E visible
17 Nov 8.2 10:49:40 28° SSW 10:53:42 41° SSE 11:02:09 10° E visible
17 Nov 8.0 12:48:24 10° WSW 12:57:15 55° S 13:06:18 10° ESE visible
18 Nov 9.3 08:28:05 16° ESE 08:28:05 16° ESE 08:31:21 10° E visible
18 Nov 8.2 10:26:07 34° S 10:28:39 39° SSE 10:36:59 10° E visible
18 Nov 7.9 12:24:09 13° WSW 12:32:08 54° S 12:41:10 10° ESE visible
19 Nov 9.4 08:04:30 13° ESE 08:04:30 13° ESE 08:05:54 10° E visible
19 Nov 8.1 10:02:32 37° SSE 10:03:36 38° SSE 10:11:49 10° E visible
19 Nov 7.9 12:00:34 20° WSW 12:07:04 54° S 12:16:03 10° ESE visible
20 Nov 8.3 09:38:54 36° SE 09:38:54 36° SE 09:46:40 10° E visible
20 Nov 7.8 11:36:56 27° SW 11:41:58 54° S 11:50:54 10° E visible
20 Nov 8.2 13:37:00 10° W 13:45:39 47° SSW 13:54:30 10° SE visible
21 Nov 8.5 09:15:14 32° SE 09:15:14 32° SE 09:21:30 10° E visible
21 Nov 7.8 11:13:16 36° SW 11:16:52 53° S 11:25:46 10° E visible
21 Nov 8.1 13:11:53 10° W 13:20:34 49° SSW 13:29:26 10° SE visible
22 Nov 8.7 08:51:32 27° ESE 08:51:32 27° ESE 08:56:19 10° E visible
22 Nov 7.7 10:49:34 44° SSW 10:51:48 52° S 11:00:39 10° E visible
22 Nov 8.0 12:47:35 13° W 12:55:29 50° SSW 13:04:22 10° ESE visible
23 Nov 9.0 08:27:49 21° ESE 08:27:49 21° ESE 08:31:08 10° E visible
23 Nov 7.7 10:25:51 50° S 10:26:43 51° SSE 10:35:32 10° E visible
23 Nov 7.9 12:23:52 19° WSW 12:30:24 51° SSW 12:39:17 10° ESE visible
